Other Public Products
Issued by NWS Grand Forks, ND

Home | Current Version | Previous Version | Text Only | Print | Product List | Glossary Off
Versions: 1 2 3 4 5 6 7 8 9 10 11 12 13 14 15 16 17 18 19 20 21 22 23 24 25 26 27 28 29 30 31 32 33 34 35 36 37 38 39 40 41 42 43 44 45 46 47 48 49 50

800
FPUS83 KFGF 151231
OPUFGF
PRAIRIE TO PINES WEATHER ROUNDUP
NATIONAL WEATHER SERVICE EASTERN NORTH DAKOTA/GRAND FORKS ND
600 AM CST FRI DEC 15 2017

 **SATELLITE DATA USED TO AUGMENT SKY COVER AT AUTOMATED STATIONS**
 *****  WEATHER ACROSS EASTERN NORTH DAKOTA  *****

CITY           SKY/WX    TMP DP  RH WIND       PRES   REMARKS
GRAND FORKS    CLOUDY    18  14  84 CALM      29.90F
6HR MIN TEMP:  18; 6HR MAX TEMP:  21; 6HR PCP: TRACE;

GRND FORKS AFB FLURRIES  18  14  86 SE3       29.89F
GRND FORKS NWS   N/A     18 N/A N/A MISG        N/A
BUXTON           N/A     17  16  95 CALM        N/A
DEVILS LAKE    LGT SNOW  22  20  92 SE8       29.83S FOG     WCI  12
6HR MIN TEMP:  22; 6HR MAX TEMP:  22; 6HR PCP: TRACE;

FARGO          CLOUDY    20  16  84 N3        29.91F
6HR MIN TEMP:  20; 6HR MAX TEMP:  21;

WAHPETON ARPT    N/A     21  18  86 N3        29.91S
$$

 *****  WEATHER ACROSS CENTRAL AND WESTERN NORTH DAKOTA  *****

CITY           SKY/WX    TMP DP  RH WIND       PRES   REMARKS
JAMESTOWN      CLOUDY    23  22  96 S6        29.83F WCI  16
6HR MIN TEMP:  22; 6HR MAX TEMP:  31; 6HR PCP: TRACE;

BISMARCK       CLOUDY    28  23  81 SW5       29.84F WCI  23
6HR MIN TEMP:  28; 6HR MAX TEMP:  34;

MINOT          CLOUDY    30  24  78 SW7       29.78F WCI  23
6HR MIN TEMP:  29; 6HR MAX TEMP:  31;

MINOT AFB      CLOUDY    29  23  80 SW6       29.77F WCI  23
6HR MIN TEMP:  27; 6HR MAX TEMP:  30;

GARRISON         N/A     29  25  85 W3        29.79F
6HR MIN TEMP:  26; 6HR MAX TEMP:  30;

WILLISTON      CLOUDY    29  25  85 SW3       29.75F
6HR MIN TEMP:  26; 6HR MAX TEMP:  29;

DICKINSON      MOCLDY    29  23  78 SW12      29.76F WCI  19
6HR MIN TEMP:  24; 6HR MAX TEMP:  29;

HETTINGER      CLOUDY    26  21  81 W5        29.81F WCI  20
6HR MIN TEMP:  17; 6HR MAX TEMP:  26;

$$

 *****  OTHER OBSERVATIONS NORTHEAST NORTH DAKOTA  *****

CITY           SKY/WX    TMP DP  RH WIND       PRES   REMARKS
WALHALLA       TSTM      16  16 100 SE7       29.86F WCI   6
LANGDON        LGT SNOW  18  18 100 S10       29.80F WCI   6
CAVALIER       PTSUNNY   14  12  92 SE5       29.88F FOG     WCI   6
GRAFTON        CLOUDY    16  14  93 SE6       29.91F WCI   7
CANDO          PTSUNNY   23  23 100 SE8       29.81F WCI  14
FORT TOTTEN      N/A     22  21  96 S7        29.95S WCI  13
ROLLA          LGT SNOW  21  21 100 S7        29.77F WCI  13
RUGBY          CLOUDY    27  25  93 SW5       29.78F WCI  21
 ***** THE ABOVE OBSERVATIONS ARE NON NWS ARE NOT QUALITY
        CONTROLLED AND MAY MIS-REPORT RAIN FOR SNOW...
$$

 *****  OTHER OBSERVATIONS SOUTHEAST NORTH DAKOTA *****

CITY           SKY/WX    TMP DP  RH WIND       PRES   REMARKS
COOPERSTOWN    LGT SNOW  19  19 100 MISG      29.85F
VALLEY CITY    CLOUDY    19  19 100 SE8       29.88S WCI   9
OAKES            N/A     21  21 100 E8        29.87F WCI  12
GWINNER          N/A     21  21 100 CALM      29.87F
SHEYENNE NWR     N/A     21  19  93 E3        29.95S
BUFFALO          N/A     19  16  87 E5          N/A  WCI  13
WYNDMERE       NOT AVBL
 ***** THE ABOVE OBSERVATIONS ARE NON NWS ARE NOT QUALITY
       CONTROLLED AND MAY MIS-REPORT RAIN FOR SNOW...
$$

  *****  WEATHER ACROSS NORTHERN MINNESOTA  *****

CITY           SKY/WX    TMP DP  RH WIND       PRES   REMARKS
FLAG ISLAND    CLOUDY     5   1  85 NE3       29.87R
WARROAD        CLOUDY     7   3  85 CALM      29.88S
ROSEAU         CLOUDY     9   3  78 CALM      29.88F
HALLOCK        CLOUDY    12  10  92 SE3       29.89F
THF RVR FALLS  FAIR       7   4  87 CALM      29.89F
6HR MIN TEMP:   7; 6HR MAX TEMP:  14; 6HR PCP: TRACE;

HALSTAD        NOT AVBL
FOSSTON        FAIR       3   0  85 CALM      29.87F
BAUDETTE       CLOUDY     8   3  80 N5        29.86F WCI   0
6HR MIN TEMP:   8; 6HR MAX TEMP:  10; 6HR PCP: TRACE;

WASKISH        CLOUDY     9   3  78 CALM      29.87S
CROOKSTON      CLOUDY    16  12  86 CALM      29.91F
$$
  *****  WEATHER ACROSS CENTRAL AND WEST MINNESOTA  *****

CITY           SKY/WX    TMP DP  RH WIND       PRES   REMARKS
BEMIDJI        CLOUDY     8   4  84 N3        29.85F
6HR MIN TEMP:   8; 6HR MAX TEMP:  14;

PARK RAPIDS    MOCLDY    10   6  84 N6        29.84F WCI   0
6HR MIN TEMP:   7; 6HR MAX TEMP:  16; 6HR PCP: TRACE;

WADENA         FAIR      12  10  92 W5        29.86S WCI   4
DETROIT LAKES  FAIR      18  14  86 N3        29.87F
MOORHEAD       CLOUDY    19  14  79 CALM      29.90F
FERGUS FALLS   CLOUDY    19  16  86 CALM      29.92S
ELBOW LAKE     CLOUDY    21  18  88 CALM      29.88F
6HR MIN TEMP:  21; 6HR MAX TEMP:  24;

MORRIS MN      CLOUDY    25  21  86 CALM      29.89R
STAPLES        FAIR       9   7  92 CALM      29.86S
WHEATON        CLOUDY    23  21  93 NE6       29.92S WCI  16
$$
  *****  WEATHER ELSEWHERE ACROSS MINNESOTA  *****

CITY           SKY/WX    TMP DP  RH WIND       PRES   REMARKS
DULUTH         LGT SNOW  10   6  84 NW8       29.82S FOG     WCI  -2
6HR MIN TEMP:  11; 6HR MAX TEMP:  12; 6HR PCP: TRACE;

INTRNTL FALLS  CLOUDY     7   1  76 NW7       29.86F WCI  -5
6HR MIN TEMP:   7; 6HR MAX TEMP:  10; 6HR PCP: TRACE;

ELY            LGT SNOW   7   3  85 NW3       29.80F
CLOQUET        LGT SNOW  12   7  79 W7        29.84S WCI   2
BRAINERD       CLOUDY    17  10  74 NW5       29.87F WCI  10
6HR MIN TEMP:  16; 6HR MAX TEMP:  17; 6HR PCP: TRACE;

HIBBING        CLOUDY     8   3  80 NW10      29.84F WCI  -6
6HR MIN TEMP:   8; 6HR MAX TEMP:  11; 6HR PCP: TRACE;

ALEXANDRIA     CLOUDY    21  16  81 N5        29.87F WCI  15
6HR MIN TEMP:  21; 6HR MAX TEMP:  23;

SAINT CLOUD    MOCLDY    17  15  92 N3        29.89S
6HR MIN TEMP:  17; 6HR MAX TEMP:  22; 6HR PCP: TRACE;

MINNEAPOLIS    CLOUDY    24  20  84 NW5       29.91S WCI  18
6HR MIN TEMP:  23; 6HR MAX TEMP:  24; 6HR PCP: TRACE;

$$

  *****  WEATHER ACROSS SOUTH DAKOTA  *****

CITY           SKY/WX    TMP DP  RH WIND       PRES   REMARKS
SIOUX FALLS    CLOUDY    33  28  81 W7        29.93F
6HR MIN TEMP:  29; 6HR MAX TEMP:  33;

BROOKINGS      CLOUDY    30  26  85 W12       29.89F WCI  20
WATERTOWN      CLOUDY    29  27  92 W5        29.86F WCI  24
6HR MIN TEMP:  28; 6HR MAX TEMP:  30;

HURON          MOCLDY    31  26  82 W10       29.91F WCI  22
6HR MIN TEMP:  31; 6HR MAX TEMP:  34;

SISSETON         N/A     24  22  91 NE6       29.90F WCI  17
ABERDEEN       MOCLDY    30  26  85 W6        29.88F WCI  24
6HR MIN TEMP:  30; 6HR MAX TEMP:  33;

MITCHELL       MOCLDY    30  25  81 W13       29.95F WCI  20
PIERRE         FAIR      26  22  84 SW8       29.90F WCI  18
6HR MIN TEMP:  26; 6HR MAX TEMP:  32;

MOBRIDGE       CLOUDY    27  22  81 CALM      29.85F
RAPID CITY     FAIR      20  10  65 W3        29.87F
6HR MIN TEMP:  12; 6HR MAX TEMP:  21;

$$

  *****  SOME WEATHER IN NEARBY STATES *****

CITY           SKY/WX    TMP DP  RH WIND       PRES   REMARKS
GLASGOW MT     FAIR      25  21  85 W7        29.74F WCI  17
6HR MIN TEMP:  22; 6HR MAX TEMP:  27;

GREAT FALLS MT FAIR      42  15  33 SW28G36   29.86F
6HR MIN TEMP:  36; 6HR MAX TEMP:  42;

CHEYENNE WY    FAIR      31  12  45 W21       30.02F WCI  18
6HR MIN TEMP:  21; 6HR MAX TEMP:  33;

SCOTTSBLUFF NE FAIR      11   8  88 NW7       30.01F WCI   0
6HR MIN TEMP:  10; 6HR MAX TEMP:  16;

OMAHA NE       CLOUDY    35  24  64 SW12      30.06F
6HR MIN TEMP:  32; 6HR MAX TEMP:  36;

DES MOINES IA  CLOUDY    29  22  75 W8        30.03S WCI  21
6HR MIN TEMP:  27; 6HR MAX TEMP:  33; 6HR PCP: TRACE;

DAVENPORT IA   MOCLDY    23  17  78 W9        30.01S WCI  13
6HR MIN TEMP:  22; 6HR MAX TEMP:  27;

CHICAGO IL     FLURRIES  26  18  71 W16G22    29.91S WCI  14
6HR MIN TEMP:  21; 6HR MAX TEMP:  26; 6HR PCP: TRACE;

EAU CLAIRE WI  CLOUDY    19  12  74 NW8G18    29.89S WCI   9
6HR MIN TEMP:  19; 6HR MAX TEMP:  21; 6HR PCP: TRACE;

LA CROSSE WI   MOCLDY    23  14  68 W12       29.92R WCI  12
6HR MIN TEMP:  23; 6HR MAX TEMP:  26;

$$

  *****  SOME NATIONAL WEATHER *****

CITY           SKY/WX    TMP DP  RH WIND       PRES   REMA



USA.gov is the U.S. government's official web portal to all federal, state and local government web resources and services.